contact:dominique.lefevre@mio.osupytheas.fr, maurice.libes@osupytheas.fr, didier.mallarino@osupytheas.fr
Project:EMSO http://www.emso-fr.org/EMSO-France
Depth: 2436.0 m
Title:EMSO Ligure Ouest : Data MII capteur MICROCAT
DateTime_Computer,Latitude,Longitude,Temperature,Conductivity,Pressure,DateTime_Instrument
DateTime_Computer,Latitude,Longitude,degC,S m-1,dbar,DateTime_Instrument
2021-08-16T00:02:54Z,42.805,6.029,13.2994,4.60004,2470.24,2021-8-16T02:04:13Z
2021-08-16T00:05:57Z,42.805,6.029,13.2995,4.60005,2470.217,2021-8-16T02:07:16Z
2021-08-16T00:09:00Z,42.805,6.029,13.2993,4.60004,2470.273,2021-8-16T02:10:19Z
2021-08-16T00:12:04Z,42.805,6.029,13.2996,4.60006,2470.273,2021-8-16T02:13:22Z
2021-08-16T00:15:07Z,42.805,6.029,13.2996,4.60004,2470.217,2021-8-16T02:16:25Z
2021-08-16T00:18:10Z,42.805,6.029,13.2996,4.60004,2470.217,2021-8-16T02:19:28Z
2021-08-16T00:21:13Z,42.805,6.029,13.2993,4.60003,2470.227,2021-8-16T02:22:31Z
2021-08-16T00:24:16Z,42.805,6.029,13.2996,4.60009,2470.287,2021-8-16T02:25:35Z
2021-08-16T00:27:19Z,42.805,6.029,13.2994,4.60005,2470.227,2021-8-16T02:28:38Z
2021-08-16T00:30:22Z,42.805,6.029,13.2993,4.60004,2470.24,2021-8-16T02:31:41Z
2021-08-16T00:33:25Z,42.805,6.029,13.2993,4.60005,2470.25,2021-8-16T02:34:44Z
2021-08-16T00:36:29Z,42.805,6.029,13.2993,4.60005,2470.227,2021-8-16T02:37:47Z
2021-08-16T00:39:32Z,42.805,6.029,13.2993,4.60005,2470.227,2021-8-16T02:40:50Z
2021-08-16T00:42:35Z,42.805,6.029,13.2995,4.60006,2470.203,2021-8-16T02:43:53Z
2021-08-16T00:45:38Z,42.805,6.029,13.2995,4.60004,2470.25,2021-8-16T02:46:56Z
2021-08-16T00:48:41Z,42.805,6.029,13.2992,4.60003,2470.264,2021-8-16T02:50:00Z
2021-08-16T00:51:44Z,42.805,6.029,13.2993,4.60003,2470.25,2021-8-16T02:53:03Z
2021-08-16T00:54:47Z,42.805,6.029,13.2996,4.60005,2470.264,2021-8-16T02:56:06Z
2021-08-16T00:57:50Z,42.805,6.029,13.2998,4.60005,2470.25,2021-8-16T02:59:09Z
2021-08-16T01:00:53Z,42.805,6.029,13.2994,4.60003,2470.227,2021-8-16T03:02:12Z
2021-08-16T01:03:57Z,42.805,6.029,13.2991,4.60003,2470.25,2021-8-16T03:05:15Z
2021-08-16T01:07:00Z,42.805,6.029,13.2992,4.60003,2470.227,2021-8-16T03:08:18Z
2021-08-16T01:10:03Z,42.805,6.029,13.2993,4.60003,2470.25,2021-8-16T03:11:21Z
2021-08-16T01:13:06Z,42.805,6.029,13.2994,4.60005,2470.227,2021-8-16T03:14:24Z
2021-08-16T01:16:09Z,42.805,6.029,13.2991,4.60003,2470.25,2021-8-16T03:17:28Z
2021-08-16T01:19:12Z,42.805,6.029,13.2994,4.60003,2470.264,2021-8-16T03:20:31Z
2021-08-16T01:22:15Z,42.805,6.029,13.2996,4.60003,2470.24,2021-8-16T03:23:34Z
2021-08-16T01:25:18Z,42.805,6.029,13.2993,4.60002,2470.264,2021-8-16T03:26:37Z
2021-08-16T01:28:22Z,42.805,6.029,13.2992,4.60001,2470.264,2021-8-16T03:29:40Z
2021-08-16T01:31:25Z,42.805,6.029,13.2996,4.60004,2470.25,2021-8-16T03:32:43Z
2021-08-16T01:34:28Z,42.805,6.029,13.2993,4.60003,2470.203,2021-8-16T03:35:46Z
2021-08-16T01:37:31Z,42.805,6.029,13.2991,4.60002,2470.24,2021-8-16T03:38:49Z
2021-08-16T01:40:34Z,42.805,6.029,13.2990,4.60003,2470.203,2021-8-16T03:41:53Z
2021-08-16T01:43:37Z,42.805,6.029,13.2994,4.60003,2470.203,2021-8-16T03:44:56Z
2021-08-16T01:46:40Z,42.805,6.029,13.2992,4.60007,2470.24,2021-8-16T03:47:59Z
2021-08-16T01:49:43Z,42.805,6.029,13.2992,4.60005,2470.24,2021-8-16T03:51:02Z
2021-08-16T01:52:47Z,42.805,6.029,13.2991,4.60006,2470.203,2021-8-16T03:54:05Z
2021-08-16T01:55:50Z,42.805,6.029,13.2991,4.60002,2470.24,2021-8-16T03:57:08Z
2021-08-16T01:58:53Z,42.805,6.029,13.2994,4.60003,2470.227,2021-8-16T04:00:11Z
2021-08-16T02:01:56Z,42.805,6.029,13.2992,4.60002,2470.24,2021-8-16T04:03:14Z
2021-08-16T02:04:59Z,42.805,6.029,13.2992,4.60003,2470.227,2021-8-16T04:06:18Z
2021-08-16T02:08:02Z,42.805,6.029,13.2992,4.60007,2470.217,2021-8-16T04:09:21Z
2021-08-16T02:11:05Z,42.805,6.029,13.2996,4.60003,2470.24,2021-8-16T04:12:24Z
2021-08-16T02:14:08Z,42.805,6.029,13.2995,4.60003,2470.25,2021-8-16T04:15:27Z
2021-08-16T02:17:12Z,42.805,6.029,13.2993,4.60002,2470.25,2021-8-16T04:18:30Z
2021-08-16T02:20:15Z,42.805,6.029,13.2993,4.60002,2470.203,2021-8-16T04:21:33Z
2021-08-16T02:23:18Z,42.805,6.029,13.2995,4.60003,2470.203,2021-8-16T04:24:36Z
2021-08-16T02:26:21Z,42.805,6.029,13.2996,4.60003,2470.227,2021-8-16T04:27:39Z
2021-08-16T02:29:24Z,42.805,6.029,13.2993,4.60004,2470.264,2021-8-16T04:30:43Z
2021-08-16T02:32:27Z,42.805,6.029,13.2993,4.60003,2470.203,2021-8-16T04:33:46Z
2021-08-16T02:35:30Z,42.805,6.029,13.2991,4.60005,2470.217,2021-8-16T04:36:49Z
2021-08-16T02:38:33Z,42.805,6.029,13.2994,4.60003,2470.227,2021-8-16T04:39:52Z
2021-08-16T02:41:37Z,42.805,6.029,13.2998,4.60002,2470.203,2021-8-16T04:42:55Z
2021-08-16T02:44:40Z,42.805,6.029,13.2998,4.60005,2470.217,2021-8-16T04:45:58Z
2021-08-16T02:47:43Z,42.805,6.029,13.2995,4.60003,2470.217,2021-8-16T04:49:01Z
2021-08-16T02:50:46Z,42.805,6.029,13.2992,4.60003,2470.227,2021-8-16T04:52:04Z
2021-08-16T02:53:49Z,42.805,6.029,13.2993,4.60003,2470.18,2021-8-16T04:55:08Z
2021-08-16T02:56:52Z,42.805,6.029,13.2993,4.60003,2470.194,2021-8-16T04:58:11Z
2021-08-16T02:59:55Z,42.805,6.029,13.3001,4.60003,2470.18,2021-8-16T05:01:14Z
2021-08-16T03:02:58Z,42.805,6.029,13.2991,4.60003,2470.203,2021-8-16T05:04:17Z
2021-08-16T03:06:02Z,42.805,6.029,13.2993,4.60003,2470.203,2021-8-16T05:07:20Z
2021-08-16T03:09:05Z,42.805,6.029,13.2991,4.60003,2470.18,2021-8-16T05:10:23Z
2021-08-16T03:12:08Z,42.805,6.029,13.2995,4.60007,2470.203,2021-8-16T05:13:26Z
2021-08-16T03:15:11Z,42.805,6.029,13.2995,4.60002,2470.203,2021-8-16T05:16:29Z
2021-08-16T03:18:14Z,42.805,6.029,13.2996,4.60003,2470.217,2021-8-16T05:19:33Z
2021-08-16T03:21:17Z,42.805,6.029,13.2992,4.60006,2470.18,2021-8-16T05:22:36Z
2021-08-16T03:24:20Z,42.805,6.029,13.2992,4.60003,2470.217,2021-8-16T05:25:39Z
2021-08-16T03:27:23Z,42.805,6.029,13.2992,4.60001,2470.203,2021-8-16T05:28:42Z
2021-08-16T03:30:27Z,42.805,6.029,13.2995,4.60001,2470.203,2021-8-16T05:31:45Z
2021-08-16T03:33:30Z,42.805,6.029,13.2994,4.60003,2470.227,2021-8-16T05:34:48Z
2021-08-16T03:36:33Z,42.805,6.029,13.2991,4.60001,2470.194,2021-8-16T05:37:51Z
2021-08-16T03:39:36Z,42.805,6.029,13.2992,4.60001,2470.18,2021-8-16T05:40:54Z
2021-08-16T03:42:39Z,42.805,6.029,13.2993,4.60002,2470.203,2021-8-16T05:43:58Z
2021-08-16T03:45:42Z,42.805,6.029,13.2990,4.60002,2470.25,2021-8-16T05:47:01Z
2021-08-16T03:48:45Z,42.805,6.029,13.2994,4.60002,2470.24,2021-8-16T05:50:04Z
2021-08-16T03:51:48Z,42.805,6.029,13.2994,4.60003,2470.24,2021-8-16T05:53:07Z
2021-08-16T03:54:52Z,42.805,6.029,13.2993,4.60003,2470.217,2021-8-16T05:56:10Z
2021-08-16T03:57:55Z,42.805,6.029,13.2990,4.60006,2470.18,2021-8-16T05:59:13Z
2021-08-16T04:00:58Z,42.805,6.029,13.2990,4.60003,2470.194,2021-8-16T06:02:16Z
2021-08-16T04:04:01Z,42.805,6.029,13.2988,4.60002,2470.156,2021-8-16T06:05:19Z
2021-08-16T04:07:04Z,42.805,6.029,13.2994,4.60003,2470.203,2021-8-16T06:08:23Z
2021-08-16T04:10:07Z,42.805,6.029,13.2991,4.60005,2470.227,2021-8-16T06:11:26Z
2021-08-16T04:13:10Z,42.805,6.029,13.2993,4.60001,2470.203,2021-8-16T06:14:29Z
2021-08-16T04:16:13Z,42.805,6.029,13.2994,4.60006,2470.18,2021-8-16T06:17:32Z
2021-08-16T04:19:16Z,42.805,6.029,13.2992,4.60003,2470.18,2021-8-16T06:20:35Z
2021-08-16T04:22:20Z,42.805,6.029,13.2992,4.60001,2470.171,2021-8-16T06:23:38Z
2021-08-16T04:25:23Z,42.805,6.029,13.2995,4.60002,2470.18,2021-8-16T06:26:41Z
2021-08-16T04:28:26Z,42.805,6.029,13.2996,4.60001,2470.203,2021-8-16T06:29:44Z
2021-08-16T04:31:29Z,42.805,6.029,13.2991,4.60003,2470.194,2021-8-16T06:32:48Z
2021-08-16T04:34:32Z,42.805,6.029,13.2990,4.60002,2470.18,2021-8-16T06:35:51Z
2021-08-16T04:37:35Z,42.805,6.029,13.2993,4.60005,2470.18,2021-8-16T06:38:54Z
2021-08-16T04:40:38Z,42.805,6.029,13.2990,4.60002,2470.217,2021-8-16T06:41:57Z
2021-08-16T04:43:41Z,42.805,6.029,13.2991,4.60002,2470.194,2021-8-16T06:45:00Z
2021-08-16T04:46:45Z,42.805,6.029,13.2990,4.60003,2470.203,2021-8-16T06:48:03Z
2021-08-16T04:49:48Z,42.805,6.029,13.2993,4.60002,2470.194,2021-8-16T06:51:06Z
2021-08-16T04:52:51Z,42.805,6.029,13.2993,4.60001,2470.194,2021-8-16T06:54:09Z
2021-08-16T04:55:54Z,42.805,6.029,13.2993,4.60003,2470.194,2021-8-16T06:57:13Z
2021-08-16T04:58:57Z,42.805,6.029,13.2993,4.60003,2470.156,2021-8-16T07:00:16Z
2021-08-16T05:02:00Z,42.805,6.029,13.2992,4.60001,2470.18,2021-8-16T07:03:19Z
2021-08-16T05:05:03Z,42.805,6.029,13.2994,4.60001,2470.18,2021-8-16T07:06:22Z
2021-08-16T05:08:06Z,42.805,6.029,13.2991,4.60009,2470.156,2021-8-16T07:09:25Z
2021-08-16T05:11:10Z,42.805,6.029,13.2988,4.60003,2470.171,2021-8-16T07:12:28Z
2021-08-16T05:14:13Z,42.805,6.029,13.2993,4.60002,2470.171,2021-8-16T07:15:31Z
2021-08-16T05:17:16Z,42.805,6.029,13.2997,4.60003,2470.156,2021-8-16T07:18:34Z
2021-08-16T05:20:19Z,42.805,6.029,13.2991,4.60003,2470.156,2021-8-16T07:21:38Z
2021-08-16T05:23:22Z,42.805,6.029,13.2990,4.60002,2470.18,2021-8-16T07:24:41Z
2021-08-16T05:26:25Z,42.805,6.029,13.2998,4.60006,2470.156,2021-8-16T07:27:44Z
2021-08-16T05:29:28Z,42.805,6.029,13.2993,4.60003,2470.133,2021-8-16T07:30:47Z
2021-08-16T05:32:31Z,42.805,6.029,13.2993,4.60001,2470.194,2021-8-16T07:33:50Z
2021-08-16T05:35:35Z,42.805,6.029,13.2995,4.60001,2470.147,2021-8-16T07:36:53Z
2021-08-16T05:38:38Z,42.805,6.029,13.2991,4.60001,2470.171,2021-8-16T07:39:56Z
2021-08-16T05:41:41Z,42.805,6.029,13.2993,4.60003,2470.18,2021-8-16T07:42:59Z
2021-08-16T05:44:44Z,42.805,6.029,13.2993,4.60001,2470.156,2021-8-16T07:46:02Z
2021-08-16T05:47:47Z,42.805,6.029,13.2993,4.60002,2470.156,2021-8-16T07:49:06Z
2021-08-16T05:50:50Z,42.805,6.029,13.2992,4.60003,2470.156,2021-8-16T07:52:09Z
2021-08-16T05:53:53Z,42.805,6.029,13.2991,4.60003,2470.133,2021-8-16T07:55:12Z
2021-08-16T05:56:56Z,42.805,6.029,13.2991,4.60003,2470.133,2021-8-16T07:58:15Z
2021-08-16T06:00:00Z,42.805,6.029,13.2993,4.60001,2470.147,2021-8-16T08:01:18Z
2021-08-16T06:03:03Z,42.805,6.029,13.2993,4.60008,2470.156,2021-8-16T08:04:21Z
2021-08-16T06:06:06Z,42.805,6.029,13.2990,4.60003,2470.156,2021-8-16T08:07:24Z
2021-08-16T06:09:09Z,42.805,6.029,13.2992,4.60008,2470.171,2021-8-16T08:10:27Z
2021-08-16T06:12:12Z,42.805,6.029,13.2993,4.60003,2470.156,2021-8-16T08:13:31Z
2021-08-16T06:15:15Z,42.805,6.029,13.2993,4.60002,2470.156,2021-8-16T08:16:34Z
2021-08-16T06:18:18Z,42.805,6.029,13.2995,4.60005,2470.147,2021-8-16T08:19:37Z
2021-08-16T06:21:21Z,42.805,6.029,13.2990,4.60006,2470.156,2021-8-16T08:22:40Z
2021-08-16T06:24:25Z,42.805,6.029,13.2998,4.60003,2470.147,2021-8-16T08:25:43Z
2021-08-16T06:27:28Z,42.805,6.029,13.2991,4.60003,2470.156,2021-8-16T08:28:46Z
2021-08-16T06:30:31Z,42.805,6.029,13.2991,4.60006,2470.156,2021-8-16T08:31:49Z
2021-08-16T06:33:34Z,42.805,6.029,13.2993,4.60002,2470.156,2021-8-16T08:34:52Z
2021-08-16T06:36:37Z,42.805,6.029,13.2990,4.60002,2470.171,2021-8-16T08:37:56Z
2021-08-16T06:39:40Z,42.805,6.029,13.2990,4.60002,2470.133,2021-8-16T08:40:59Z
2021-08-16T06:42:43Z,42.805,6.029,13.2991,4.60003,2470.11,2021-8-16T08:44:02Z
2021-08-16T06:45:46Z,42.805,6.029,13.2990,4.60003,2470.11,2021-8-16T08:47:05Z
2021-08-16T06:48:50Z,42.805,6.029,13.2993,4.60003,2470.133,2021-8-16T08:50:08Z
2021-08-16T06:51:53Z,42.805,6.029,13.2991,4.60003,2470.171,2021-8-16T08:53:11Z
2021-08-16T06:54:56Z,42.805,6.029,13.2990,4.60002,2470.171,2021-8-16T08:56:14Z
2021-08-16T06:57:59Z,42.805,6.029,13.2992,4.60003,2470.124,2021-8-16T08:59:17Z
2021-08-16T07:01:02Z,42.805,6.029,13.2991,4.60001,2470.11,2021-8-16T09:02:21Z
2021-08-16T07:04:05Z,42.805,6.029,13.2991,4.60003,2470.11,2021-8-16T09:05:24Z
2021-08-16T07:07:08Z,42.805,6.029,13.2993,4.60003,2470.119,2021-8-16T09:08:27Z
2021-08-16T07:10:11Z,42.805,6.029,13.2991,4.60004,2470.147,2021-8-16T09:11:30Z
2021-08-16T07:13:15Z,42.805,6.029,13.2995,4.60003,2470.147,2021-8-16T09:14:33Z
2021-08-16T07:16:18Z,42.805,6.029,13.2990,4.60003,2470.11,2021-8-16T09:17:36Z
2021-08-16T07:19:21Z,42.805,6.029,13.2990,4.60002,2470.133,2021-8-16T09:20:39Z
2021-08-16T07:22:24Z,42.805,6.029,13.2996,4.60002,2470.133,2021-8-16T09:23:42Z
2021-08-16T07:25:27Z,42.805,6.029,13.2991,4.60001,2470.156,2021-8-16T09:26:46Z
2021-08-16T07:28:30Z,42.805,6.029,13.2993,4.60002,2470.11,2021-8-16T09:29:49Z
2021-08-16T07:31:33Z,42.805,6.029,13.2990,4.60006,2470.133,2021-8-16T09:32:52Z
2021-08-16T07:34:36Z,42.805,6.029,13.2993,4.60002,2470.124,2021-8-16T09:35:55Z
2021-08-16T07:37:39Z,42.805,6.029,13.2993,4.60003,2470.133,2021-8-16T09:38:58Z
2021-08-16T07:40:43Z,42.805,6.029,13.2994,4.60003,2470.147,2021-8-16T09:42:01Z
2021-08-16T07:43:46Z,42.805,6.029,13.2991,4.60002,2470.156,2021-8-16T09:45:04Z
2021-08-16T07:46:49Z,42.805,6.029,13.2991,4.60003,2470.133,2021-8-16T09:48:07Z
2021-08-16T07:49:52Z,42.805,6.029,13.2990,4.60003,2470.147,2021-8-16T09:51:11Z
2021-08-16T07:52:55Z,42.805,6.029,13.2992,4.60002,2470.124,2021-8-16T09:54:14Z
2021-08-16T07:55:58Z,42.805,6.029,13.2990,4.60003,2470.156,2021-8-16T09:57:17Z
2021-08-16T07:59:01Z,42.805,6.029,13.2991,4.60004,2470.147,2021-8-16T10:00:20Z
2021-08-16T08:02:04Z,42.805,6.029,13.2993,4.60005,2470.119,2021-8-16T10:03:23Z
2021-08-16T08:05:08Z,42.805,6.029,13.2992,4.60002,2470.156,2021-8-16T10:06:26Z
2021-08-16T08:08:11Z,42.805,6.029,13.2993,4.60002,2470.119,2021-8-16T10:09:29Z
2021-08-16T08:11:14Z,42.805,6.029,13.2993,4.60002,2470.156,2021-8-16T10:12:32Z
2021-08-16T08:14:17Z,42.805,6.029,13.2990,4.60001,2470.119,2021-8-16T10:15:36Z
2021-08-16T08:17:20Z,42.805,6.029,13.2991,4.60002,2470.133,2021-8-16T10:18:39Z
2021-08-16T08:20:23Z,42.805,6.029,13.2995,4.60002,2470.147,2021-8-16T10:21:42Z
2021-08-16T08:23:26Z,42.805,6.029,13.2992,4.60005,2470.133,2021-8-16T10:24:45Z
2021-08-16T08:26:30Z,42.805,6.029,13.2993,4.60003,2470.147,2021-8-16T10:27:48Z
2021-08-16T08:29:33Z,42.805,6.029,13.2993,4.60004,2470.147,2021-8-16T10:30:51Z
2021-08-16T08:32:36Z,42.805,6.029,13.2990,4.60005,2470.156,2021-8-16T10:33:54Z
2021-08-16T08:35:39Z,42.805,6.029,13.2992,4.60003,2470.147,2021-8-16T10:36:57Z
2021-08-16T08:38:42Z,42.805,6.029,13.2990,4.60002,2470.18,2021-8-16T10:40:01Z
2021-08-16T08:41:45Z,42.805,6.029,13.2991,4.60003,2470.156,2021-8-16T10:43:04Z
2021-08-16T08:44:48Z,42.805,6.029,13.2991,4.60003,2470.133,2021-8-16T10:46:07Z
2021-08-16T08:47:51Z,42.805,6.029,13.2993,4.60002,2470.156,2021-8-16T10:49:10Z
2021-08-16T08:50:55Z,42.805,6.029,13.2990,4.60002,2470.171,2021-8-16T10:52:13Z
2021-08-16T08:53:58Z,42.805,6.029,13.2990,4.60004,2470.133,2021-8-16T10:55:16Z
2021-08-16T08:57:01Z,42.805,6.029,13.2991,4.60001,2470.156,2021-8-16T10:58:19Z
2021-08-16T09:00:04Z,42.805,6.029,13.2992,4.60001,2470.18,2021-8-16T11:01:22Z
2021-08-16T09:03:07Z,42.805,6.029,13.2991,4.60004,2470.18,2021-8-16T11:04:26Z
2021-08-16T09:06:10Z,42.805,6.029,13.2990,4.60002,2470.156,2021-8-16T11:07:29Z
2021-08-16T09:09:13Z,42.805,6.029,13.2990,4.60002,2470.156,2021-8-16T11:10:32Z
2021-08-16T09:12:16Z,42.805,6.029,13.2993,4.60002,2470.156,2021-8-16T11:13:35Z
2021-08-16T09:15:20Z,42.805,6.029,13.2990,4.60002,2470.156,2021-8-16T11:16:38Z
2021-08-16T09:18:23Z,42.805,6.029,13.2993,4.60002,2470.18,2021-8-16T11:19:41Z
2021-08-16T09:21:26Z,42.805,6.029,13.2990,4.60002,2470.171,2021-8-16T11:22:44Z
2021-08-16T09:24:29Z,42.805,6.029,13.2990,4.60003,2470.156,2021-8-16T11:25:48Z
2021-08-16T09:27:32Z,42.805,6.029,13.2991,4.60002,2470.156,2021-8-16T11:28:51Z
2021-08-16T09:30:35Z,42.805,6.029,13.2992,4.60001,2470.18,2021-8-16T11:31:54Z
2021-08-16T09:33:38Z,42.805,6.029,13.2993,4.60003,2470.171,2021-8-16T11:34:57Z
2021-08-16T09:36:42Z,42.805,6.029,13.2991,4.60004,2470.18,2021-8-16T11:38:00Z
2021-08-16T09:39:45Z,42.805,6.029,13.2991,4.60003,2470.171,2021-8-16T11:41:03Z
2021-08-16T09:42:48Z,42.805,6.029,13.2996,4.60003,2470.18,2021-8-16T11:44:06Z
2021-08-16T09:45:51Z,42.805,6.029,13.2994,4.60003,2470.203,2021-8-16T11:47:09Z
2021-08-16T09:48:54Z,42.805,6.029,13.2991,4.60002,2470.18,2021-8-16T11:50:13Z
2021-08-16T09:51:57Z,42.805,6.029,13.2991,4.60002,2470.217,2021-8-16T11:53:16Z
2021-08-16T09:55:00Z,42.805,6.029,13.2990,4.60002,2470.194,2021-8-16T11:56:19Z
2021-08-16T09:58:03Z,42.805,6.029,13.2990,4.60002,2470.217,2021-8-16T11:59:22Z
2021-08-16T10:01:06Z,42.805,6.029,13.2993,4.60003,2470.18,2021-8-16T12:02:25Z
2021-08-16T10:04:10Z,42.805,6.029,13.2992,4.60003,2470.203,2021-8-16T12:05:28Z
2021-08-16T10:07:13Z,42.805,6.029,13.2990,4.60003,2470.194,2021-8-16T12:08:31Z
2021-08-16T10:10:16Z,42.805,6.029,13.2989,4.60002,2470.194,2021-8-16T12:11:34Z
2021-08-16T10:13:19Z,42.805,6.029,13.2992,4.60002,2470.156,2021-8-16T12:14:38Z
2021-08-16T10:16:22Z,42.805,6.029,13.2990,4.60003,2470.194,2021-8-16T12:17:41Z
2021-08-16T10:19:25Z,42.805,6.029,13.2991,4.60001,2470.203,2021-8-16T12:20:44Z
2021-08-16T10:22:28Z,42.805,6.029,13.2990,4.60002,2470.203,2021-8-16T12:23:47Z
2021-08-16T10:25:32Z,42.805,6.029,13.2991,4.60001,2470.189,2021-8-16T12:26:50Z
2021-08-16T10:28:35Z,42.805,6.029,13.2990,4.60002,2470.227,2021-8-16T12:29:53Z
2021-08-16T10:31:38Z,42.805,6.029,13.2989,4.60001,2470.217,2021-8-16T12:32:56Z
2021-08-16T10:34:41Z,42.805,6.029,13.2990,4.60001,2470.203,2021-8-16T12:35:59Z
2021-08-16T10:37:44Z,42.805,6.029,13.2989,4.60001,2470.217,2021-8-16T12:39:03Z
2021-08-16T10:40:47Z,42.805,6.029,13.2990,4.60002,2470.24,2021-8-16T12:42:06Z
2021-08-16T10:43:50Z,42.805,6.029,13.2991,4.60003,2470.227,2021-8-16T12:45:09Z
2021-08-16T10:46:53Z,42.805,6.029,13.2994,4.60002,2470.203,2021-8-16T12:48:12Z
2021-08-16T10:49:57Z,42.805,6.029,13.2995,4.60002,2470.24,2021-8-16T12:51:15Z
2021-08-16T10:53:00Z,42.805,6.029,13.2992,4.60002,2470.217,2021-8-16T12:54:18Z
2021-08-16T10:56:03Z,42.805,6.029,13.2992,4.60002,2470.227,2021-8-16T12:57:21Z
2021-08-16T10:59:06Z,42.805,6.029,13.2991,4.60003,2470.203,2021-8-16T13:00:24Z
2021-08-16T11:02:09Z,42.805,6.029,13.2990,4.60002,2470.203,2021-8-16T13:03:28Z
2021-08-16T11:05:12Z,42.805,6.029,13.2991,4.60002,2470.18,2021-8-16T13:06:31Z
2021-08-16T11:08:15Z,42.805,6.029,13.2990,4.60004,2470.227,2021-8-16T13:09:34Z
2021-08-16T11:11:18Z,42.805,6.029,13.2992,4.60002,2470.213,2021-8-16T13:12:37Z
2021-08-16T11:14:22Z,42.805,6.029,13.2992,4.60002,2470.227,2021-8-16T13:15:40Z
2021-08-16T11:17:25Z,42.805,6.029,13.2991,4.60003,2470.203,2021-8-16T13:18:43Z
2021-08-16T11:20:28Z,42.805,6.029,13.2995,4.60002,2470.227,2021-8-16T13:21:46Z
2021-08-16T11:23:31Z,42.805,6.029,13.2994,4.60004,2470.24,2021-8-16T13:24:49Z
2021-08-16T11:26:34Z,42.805,6.029,13.2991,4.60003,2470.25,2021-8-16T13:27:53Z
2021-08-16T11:29:37Z,42.805,6.029,13.2990,4.60003,2470.227,2021-8-16T13:30:56Z
2021-08-16T11:32:40Z,42.805,6.029,13.2991,4.60003,2470.25,2021-8-16T13:33:59Z
2021-08-16T11:35:43Z,42.805,6.029,13.2999,4.60003,2470.273,2021-8-16T13:37:02Z
2021-08-16T11:38:47Z,42.805,6.029,13.2991,4.60003,2470.25,2021-8-16T13:40:05Z
2021-08-16T11:41:50Z,42.805,6.029,13.2994,4.60003,2470.227,2021-8-16T13:43:08Z
2021-08-16T11:44:53Z,42.805,6.029,13.2993,4.60002,2470.264,2021-8-16T13:46:11Z
2021-08-16T11:47:56Z,42.805,6.029,13.2991,4.60003,2470.25,2021-8-16T13:49:15Z
2021-08-16T11:50:59Z,42.805,6.029,13.2992,4.60003,2470.273,2021-8-16T13:52:18Z
2021-08-16T11:54:02Z,42.805,6.029,13.2991,4.60003,2470.25,2021-8-16T13:55:21Z
2021-08-16T11:57:05Z,42.805,6.029,13.2991,4.60003,2470.25,2021-8-16T13:58:24Z
2021-08-16T12:00:08Z,42.805,6.029,13.2993,4.60005,2470.25,2021-8-16T14:01:27Z
2021-08-16T12:03:12Z,42.805,6.029,13.2992,4.60004,2470.287,2021-8-16T14:04:30Z
2021-08-16T12:06:15Z,42.805,6.029,13.2990,4.60003,2470.227,2021-8-16T14:07:33Z
2021-08-16T12:09:18Z,42.805,6.029,13.2991,4.60004,2470.264,2021-8-16T14:10:36Z
2021-08-16T12:12:21Z,42.805,6.029,13.2996,4.60005,2470.273,2021-8-16T14:13:40Z
2021-08-16T12:15:24Z,42.805,6.029,13.2996,4.60005,2470.25,2021-8-16T14:16:43Z
2021-08-16T12:18:27Z,42.805,6.029,13.2992,4.60004,2470.264,2021-8-16T14:19:46Z
2021-08-16T12:21:30Z,42.805,6.029,13.2995,4.60005,2470.273,2021-8-16T14:22:49Z
2021-08-16T12:24:34Z,42.805,6.029,13.2999,4.60008,2470.287,2021-8-16T14:25:52Z
2021-08-16T12:27:37Z,42.805,6.029,13.2995,4.60006,2470.264,2021-8-16T14:28:55Z
2021-08-16T12:30:40Z,42.805,6.029,13.2998,4.60006,2470.25,2021-8-16T14:31:58Z
2021-08-16T12:33:43Z,42.805,6.029,13.2994,4.60006,2470.25,2021-8-16T14:35:01Z
2021-08-16T12:36:46Z,42.805,6.029,13.2998,4.60006,2470.25,2021-8-16T14:38:05Z
2021-08-16T12:39:49Z,42.805,6.029,13.2999,4.60007,2470.273,2021-8-16T14:41:08Z
2021-08-16T12:42:52Z,42.805,6.029,13.2998,4.60008,2470.31,2021-8-16T14:44:11Z
2021-08-16T12:45:55Z,42.805,6.029,13.3002,4.60007,2470.273,2021-8-16T14:47:14Z
2021-08-16T12:48:59Z,42.805,6.029,13.2996,4.60007,2470.273,2021-8-16T14:50:17Z
2021-08-16T12:52:02Z,42.805,6.029,13.2998,4.60010,2470.26,2021-8-16T14:53:20Z
2021-08-16T12:55:05Z,42.805,6.029,13.2996,4.60009,2470.25,2021-8-16T14:56:23Z
2021-08-16T12:58:08Z,42.805,6.029,13.2999,4.60009,2470.264,2021-8-16T14:59:26Z
2021-08-16T13:01:11Z,42.805,6.029,13.3001,4.60009,2470.287,2021-8-16T15:02:30Z
2021-08-16T13:04:14Z,42.805,6.029,13.2996,4.60013,2470.287,2021-8-16T15:05:33Z
2021-08-16T13:07:17Z,42.805,6.029,13.2998,4.60010,2470.25,2021-8-16T15:08:36Z
2021-08-16T13:10:20Z,42.805,6.029,13.2998,4.60010,2470.297,2021-8-16T15:11:39Z
2021-08-16T13:13:24Z,42.805,6.029,13.3000,4.60010,2470.273,2021-8-16T15:14:42Z
2021-08-16T13:16:27Z,42.805,6.029,13.2998,4.60010,2470.287,2021-8-16T15:17:45Z
2021-08-16T13:19:30Z,42.805,6.029,13.2994,4.60010,2470.287,2021-8-16T15:20:48Z
2021-08-16T13:22:33Z,42.805,6.029,13.2998,4.60011,2470.264,2021-8-16T15:23:52Z
2021-08-16T13:25:36Z,42.805,6.029,13.2998,4.60011,2470.287,2021-8-16T15:26:55Z
2021-08-16T13:28:39Z,42.805,6.029,13.2999,4.60011,2470.297,2021-8-16T15:29:58Z
2021-08-16T13:31:42Z,42.805,6.029,13.2997,4.60011,2470.273,2021-8-16T15:33:01Z
2021-08-16T13:34:45Z,42.805,6.029,13.2997,4.60009,2470.297,2021-8-16T15:36:04Z
2021-08-16T13:37:49Z,42.805,6.029,13.2998,4.60010,2470.273,2021-8-16T15:39:07Z
2021-08-16T13:40:52Z,42.805,6.029,13.3000,4.60010,2470.297,2021-8-16T15:42:10Z
2021-08-16T13:43:55Z,42.805,6.029,13.2999,4.60010,2470.32,2021-8-16T15:45:13Z
2021-08-16T13:46:58Z,42.805,6.029,13.2999,4.60010,2470.297,2021-8-16T15:48:17Z
2021-08-16T13:50:01Z,42.805,6.029,13.2997,4.60011,2470.287,2021-8-16T15:51:20Z
2021-08-16T13:53:04Z,42.805,6.029,13.2998,4.60014,2470.264,2021-8-16T15:54:23Z
2021-08-16T13:56:07Z,42.805,6.029,13.2999,4.60012,2470.273,2021-8-16T15:57:26Z
2021-08-16T13:59:11Z,42.805,6.029,13.3001,4.60010,2470.287,2021-8-16T16:00:29Z
2021-08-16T14:02:14Z,42.805,6.029,13.2998,4.60010,2470.31,2021-8-16T16:03:32Z
2021-08-16T14:05:17Z,42.805,6.029,13.2997,4.60011,2470.287,2021-8-16T16:06:35Z
2021-08-16T14:08:20Z,42.805,6.029,13.2998,4.60010,2470.273,2021-8-16T16:09:38Z
2021-08-16T14:11:23Z,42.805,6.029,13.3001,4.60010,2470.273,2021-8-16T16:12:42Z
2021-08-16T14:14:26Z,42.805,6.029,13.3000,4.60014,2470.297,2021-8-16T16:15:45Z
2021-08-16T14:17:29Z,42.805,6.029,13.2998,4.60011,2470.31,2021-8-16T16:18:48Z
2021-08-16T14:20:32Z,42.805,6.029,13.2998,4.60011,2470.273,2021-8-16T16:21:51Z
2021-08-16T14:23:36Z,42.805,6.029,13.3003,4.60010,2470.273,2021-8-16T16:24:54Z
2021-08-16T14:26:39Z,42.805,6.029,13.3000,4.60011,2470.273,2021-8-16T16:27:57Z
2021-08-16T14:29:42Z,42.805,6.029,13.2997,4.60010,2470.297,2021-8-16T16:31:00Z
2021-08-16T14:32:45Z,42.805,6.029,13.2998,4.60011,2470.297,2021-8-16T16:34:03Z
2021-08-16T14:35:48Z,42.805,6.029,13.3000,4.60013,2470.273,2021-8-16T16:37:07Z
2021-08-16T14:38:51Z,42.805,6.029,13.2998,4.60009,2470.31,2021-8-16T16:40:10Z
2021-08-16T14:41:54Z,42.805,6.029,13.2998,4.60010,2470.297,2021-8-16T16:43:13Z
2021-08-16T14:44:57Z,42.805,6.029,13.3002,4.60010,2470.25,2021-8-16T16:46:16Z
2021-08-16T14:48:01Z,42.805,6.029,13.2997,4.60011,2470.287,2021-8-16T16:49:19Z
2021-08-16T14:51:04Z,42.805,6.029,13.3001,4.60011,2470.273,2021-8-16T16:52:22Z
2021-08-16T14:54:07Z,42.805,6.029,13.2998,4.60011,2470.273,2021-8-16T16:55:25Z
2021-08-16T14:57:10Z,42.805,6.029,13.2998,4.60013,2470.297,2021-8-16T16:58:29Z
2021-08-16T15:00:13Z,42.805,6.029,13.3002,4.60010,2470.287,2021-8-16T17:01:32Z
2021-08-16T15:03:16Z,42.805,6.029,13.2999,4.60013,2470.273,2021-8-16T17:04:35Z
2021-08-16T15:06:19Z,42.805,6.029,13.2996,4.60011,2470.273,2021-8-16T17:07:38Z
2021-08-16T15:09:22Z,42.805,6.029,13.2997,4.60009,2470.264,2021-8-16T17:10:41Z
2021-08-16T15:12:26Z,42.805,6.029,13.2996,4.60010,2470.287,2021-8-16T17:13:44Z